San Pedro, Belize

7:02 PM CST on August 04, 2015 (GMT -0600)
Blake St. San Pedro | | Change Station
CLOSE
Current Station
Personal Weather Station
Location: San Pedro,
Elevation: 10 ft
Nearby Weather Stations

Elev 10 ft 17.91 °N, 87.97 °W | Updated 12 seconds ago

Mostly Cloudy
Mostly Cloudy
83.5 °F
Feels Like 92 °F
N
13.8
Wind Variable Wind from NE
Gusts 17.0 mph

Today
High -- | Low -- °F
--% Chance of Precip.
Yesterday
High -- | Low -- °F
Precip. -- in
5:31 AM 6:24 PM
Waning Gibbous, 73% visible
Pressure 29.96 in
Visibility 6.2 miles
Clouds Mostly Cloudy 2000 ft
Heat Index 92 °F
Dew Point 75 °F
Humidity 77%
Rainfall 0.00 in
Snow Depth Not available.
UV 0 out of 12
Pollen Not available.
Air Quality Not available.
Flu Activity Not available.
METAR MZBZ 050100Z 09010KT 9999 BKN020 29/25 A2996 Q1014 NOSIG

More Conditions Fewer Conditions

Pressure 29.96 in
Visibility 6.2 miles
Clouds Mostly Cloudy 2000 ft
Heat Index 92 °F
Dew Point 75 °F
Humidity 77%
Rainfall 0.00 in
Snow Depth Not available.
UV 0 out of 12
Pollen Not available.
Air Quality Not available.
Flu Activity Not available.
METAR MZBZ 050100Z 09010KT 9999 BKN020 29/25 A2996 Q1014 NOSIG

More Conditions Fewer Conditions

10-Day Weather Forecast

×

Almanac

Astronomy

Aug. 04, 2015 Rise Set
Actual Time
Civil Twilight
Nautical Twilight
Astronomical Twilight
Moon
Length of Visible Light
Length of Day
Tomorrow will be .
, % of the Moon is Illuminated

Today's Extremes

Country Highs Country Lows

Community

WunderPhotos

Upload Photos

1,844,049 photos uploaded!

WunderBlogs® & News

Nearby

Air Quality

  Air Quality AQ Index Pollutant
Not available.

Snow Depth

Station Depth Elevation

Earthquake Activity

City Distance Mag. Time & Date
Minimum magnitude displayed is 2.5.

Coastal Water Temperatures

Place Temperature

Stations

Nearby Weather Stations

Station Location Temp. Windchill Dew Point Humidity Wind Precip. Elev Updated Type